THURAYA-2 (27825 NORAD) Tracking and Keplerian Element Data

This shows tracking and keplerian element data for the satellite.

Feedback or suggestion? Click here.




ElementValue
Catalog27825
NameTHURAYA-2
Epoch Orbit7935
Epoch Day34.62086275
Epoch Year2025
RAAN33.6889
Inclination8.0591
Eccentricity0.0007193
Argument of Perigee318.4076
Mean Anonmoly49.4395
Mean Motion1.00273526
Decay Rate1.28E-06
L11 27825U 03026A 25034.62086275 .00000128 00000+0 00000+0 0 9994
L22 27825 8.0591 33.6889 0007193 318.4076 49.4395 1.00273526 79359



Live tracking and technical data element details for THURAYA-2 (NORAD 27825). THURAYA-2 can be tracked NOW for your location showing map with azimuth and elevation plus other details from your city location.







IsCatalogInMostPopularTable: catalog: 27825, numindb: 279
Update: records affected: 1



GetName: 27825 THURAYA-2

Hit Count: updated at: Thu, 15 May 2025 19:54:04 GMT